ONEWEB-0691, 61599

Orbit data source: Space-Track

ONEWEB-0691, 61599 is a payload satellite owned by Eut. One Web (UK) in LEO that was launched on Sun, 20 Oct 2024 UTC via an FALCON 9 launch vehicle from the Air Force Western Test Range (AFWTR). Payload-class satellites include a variety of spacecraft equipped with specific instruments for various scientific and technological missions. These include communications satellites like Starlink; space stations such as the ISS; scientific satellites like the Hubble; Earth observation satellites from companies like Planet Labs, Umbra, and HawkEye 360; GPS; miniature CubeSats for education and research; and military/defense satellites.

Loading next visibility...
Identifier
61599, 2024-188F
Orbit
LEO
Country
Flag of UKUK
Related business
Manufacturer
One Web
Mission
Operational Commercial Communications
Bus & Motor
ARROW, Unknown motor
Mass
148 kg wet, ~140 kg dry
Launch date (UTC)
2024-10-20 (1 year ago)
Launch vehicle
FALCON 9
Launch site
Air Force Western Test Range (AFWTR)
Object type
Payload
Rocket body
Debris
Shape & HBR
Trap Box + 2 Pan, 6.7 m
Radar Cross Section
3.464 m², Medium (>0.1 m² and < 1m²)

Expand to show TLE details & history
Last TLE update: 14 hours ago

TLE from 14 hours ago
0 ONEWEB-0691
1 61599U 24188F   26035.59207624 -.00000474  00000-0 -13732-2 0  9999
2 61599  87.8834  47.3352 0002144  81.4198 278.7172 13.11416589 67103
Epoch: 2026-02-04T14:12Z
TLE epoch observation values (Epoch: 2026-02-04T14:12:35.387Z)
Latitude
-0.00009°
Longitude
59.4313°
Altitude
1,220.327 km
Speed
7.244 km/s
True Right ascension
03h 09m 20s
True Declination
0° 00' 00"
Sunlit
Object was in daylight at epoch
Visualization orbit readout
Latitude
Unknown
Longitude
Unknown
Altitude
Unknown
Speed
Unknown
Apparent Right ascension
Unknown
Apparent Declination
Unknown
Sunlit
N/A
Visualization observer readout
Local Sidereal Time
06:09:09
Azimuth
Unknown
Elevation
Unknown
Doppler factor
Unknown
Orbital elements
Apogee altitude
1,216.43 km
Perigee altitude
1,213.174 km
Semi-major axis
7,592.939 km
Eccentricity
0.00021
Inclination
87.8834°
RAAN
47.3352°
Arg. of periapsis
81.4198°
True anomaly
278.69291°
Mean anomaly
278.7172°
Eccentric anomaly
278.70506°
Mean motion
3.28041 °/min
Orbital period
109.74 mins
BSTAR
-0.0013732
Loading maneuver chart data...
Computing Atmospheric mass density...
Loading historical data...
Loading historical data...
Loading historical data...
Loading historical data...
Loading historical data...
Loading historical data...
Loading historical data...

Documentation

Showing up to 5 results
|